IRIDIUM 33 DEB, 37548

Orbit data source: Space-Track

IRIDIUM 33 DEB, 37548 is space debris in LEO originally from a launch on Sun, 14 Sep 1997 UTC launched from the Tyuratam Missile And Space Complex (TTMTR). The debris from Iridium 33, an American commercial communications satellite, has been tracked extensively since its accidental collision with the defunct Russian satellite Cosmos 2251 in 2009. This event, occurring at high speed in low Earth orbit (LEO), generated thousands of pieces of space debris, significantly increasing the risk of further collisions. The Iridium 33 debris cloud has impacted space traffic management and orbital debris mitigation strategies, making it a subject of ongoing study in space situational awareness.

Loading next visibility...
Identifier
37548, 1997-051XH
Orbit
LEO
Country
Flag of USUS
Related business
Manufacturer
Unknown
Mission
Spacecraft
Bus & Motor
Unknown
Mass
Unknown
Launch date (UTC)
1997-09-14 (29 years ago)
Launch vehicle
Unknown
Launch site
Tyuratam Missile And Space Complex (TTMTR)
Object type
Payload
Rocket body
Debris
Shape & HBR
Unknown shape, 0.1 m
Radar Cross Section
Small (<0.1 m²)

Expand to show TLE details & history
Last TLE update: 5 days ago

TLE from 5 days ago
0 IRIDIUM 33 DEB
1 37548U 97051XH  26258.79842521  .00001812  00000-0  43226-3 0  9992
2 37548  86.3466 282.6087 0022962 350.0301  10.0446 14.53064576695532
Epoch: 2026-09-15T19:09Z
TLE epoch observation values (Epoch: 2026-09-15T19:09:43.938Z)
Latitude
-0.00003°
Longitude
0.41642°
Altitude
702.692 km
Speed
7.513 km/s
True Right ascension
18h 50m 26s
True Declination
0° 00' 00"
Sunlit
Object was in daylight at epoch
Visualization orbit readout
Latitude
Unknown
Longitude
Unknown
Altitude
Unknown
Speed
Unknown
Apparent Right ascension
Unknown
Apparent Declination
Unknown
Sunlit
N/A
Visualization observer readout
Local Sidereal Time
03:47:48
Azimuth
Unknown
Elevation
Unknown
Doppler factor
Unknown
Orbital elements
Apogee altitude
728.878 km
Perigee altitude
696.314 km
Semi-major axis
7,090.733 km
Eccentricity
0.0023
Inclination
86.3466°
RAAN
282.6087°
Arg. of periapsis
350.0301°
True anomaly
10.09062°
Mean anomaly
10.0446°
Eccentric anomaly
10.0676°
Mean motion
3.63502 °/min
Orbital period
99.04 mins
BSTAR
0.00043226
Loading maneuver chart data...
Computing Atmospheric mass density...

Documentation

Showing up to 5 results
|